Location: Étang Rond
(42.7927°N, 1.0661°E)
Time: 00:07:50
(UTC+00:00)

PAYLOAD A - Pass Details

Date: 08 November 2025
Orbit: 690 x 828 km, 98.6° (Epoch: 07 December)

Event Time Altitude Azimuth Distance (km) Brightness Sun altitude
Rises 04:09:57 0° 13° (NNE) 3,378 7.5 -27.5°
Reaches altitude 10° 04:12:19 10° 14° (NNE) 2,436 6.8 -27.1°
Maximum altitude 04:17:45 86° 103° (ESE) 822 4.0 -26.1°
Enters shadow 04:20:29 30° 192° (SSW) 1,410 5.2 -25.6°
